Home   Weather   Washington Hill   Past weeks
Flag for USA

Past Weather in Washington Hill, Alabama, USA — Yesterday and Last 2 Weeks

Now
75 °F

Partly sunny.


Feels Like: 74 °F
Forecast: 88 / 72 °F
Wind: 3 mph from Southeast

Location: Maxwell Air Force Base / Montgomery

Current Time: Jul 21, 2019 at 7:59:08 am

Latest Report: Jul 21, 2019 at 7:26 am


Visibility: 7 mi

Pressure: 30.07 "Hg

Humidity: 94%

Dew Point: 73 °F

Location of Washington HillLocation

Past Weather in Washington Hill — Graph

°F

Washington Hill Temperature Yesterday

Maximum temperature yesterday: 86 °F (at 3:56 pm)
Minimum temperature yesterday: 72 °F (at 2:56 am)
Average temperature yesterday: 78 °F

High & Low Weather Summary for the Past Weeks

 TemperatureHumidityPressure
High99 °F (Jul 9, 3:56 pm)100% (Jul 16, 4:11 am)30.17 "Hg (Jul 16, 4:11 am)
Low72 °F (Jul 16, 4:11 am)37% (Jul 6, 4:56 pm)29.82 "Hg (Jul 11, 5:22 pm)
Average81 °F81%30.01 "Hg
* Reported Jul 6 6:56 am — Jul 21 6:26 am, Washington Hill. Weather by CustomWeather, © 2019

Note: Actual official high and low records may vary slightly from our data, if they occured in-between our weather recording intervals... More about our weather records

Advertising

Washington Hill Weather History for the Previous 24 Hours

Scroll right to see more
 ConditionsComfort  
Time TempWeatherWind HumidityBarometerVisibility
6:26 am
Sun, Jul 21
73 °FScattered clouds.3 mph100%30.07 "Hg7 mi
5:56 am73 °FPartly sunny.No wind98%30.06 "Hg8 mi
4:56 am72 °FPassing clouds.No wind98%30.04 "Hg10 mi
3:56 am72 °FFog.No wind97%30.02 "Hg6 mi
2:56 am73 °FPassing clouds.No wind97%30.01 "Hg10 mi
1:56 am73 °FClear.No wind96%30.00 "Hg10 mi
12:56 am73 °FClear.No wind96%30.02 "Hg10 mi
11:56 pm
Sat, Jul 20
73 °FClear.No wind96%30.04 "Hg10 mi
10:56 pm74 °FClear.3 mph96%30.05 "Hg10 mi
9:56 pm75 °FClear.6 mph95%30.04 "Hg10 mi
8:56 pm76 °FClear.6 mph94%30.03 "Hg10 mi
7:56 pm77 °FPassing clouds.No wind90%30.00 "Hg10 mi
6:56 pm78 °FSunny.6 mph85%30.00 "Hg10 mi
5:56 pm79 °FSunny.6 mph83%30.01 "Hg10 mi
5:38 pm81 °FSunny.9 mph79%30.02 "Hg10 mi
5:23 pm82 °FThunderstorms. Sunny.10 mph79%30.02 "Hg10 mi
4:56 pm85 °FPassing clouds.10 mph70%30.01 "Hg10 mi
3:56 pm86 °FSunny.8 mph70%30.02 "Hg10 mi
2:56 pm85 °FPassing clouds.6 mph69%30.03 "Hg10 mi
1:56 pm85 °FSunny.7 mph73%30.05 "Hg10 mi
12:56 pm82 °FPassing clouds.9 mph77%30.06 "Hg10 mi
12:12 pm82 °FLight rain. Partly sunny.7 mph74%30.08 "Hg10 mi
11:56 am84 °FPartly sunny.7 mph71%30.08 "Hg10 mi
10:56 am83 °FOvercast.No wind72%30.08 "Hg10 mi
9:56 am81 °FPassing clouds.7 mph76%30.08 "Hg10 mi
8:56 am77 °FPartly sunny.5 mph87%30.09 "Hg10 mi
7:56 am76 °FScattered clouds.No wind91%30.09 "Hg10 mi
Weather by CustomWeather, © 2019

See weather overview